Location: Luna
(33.8188°N, 108.9564°W)
Time: 19:09:05
(UTC+00:00)

NOAA 15 - Visible Passes

Search period start: 15 April 2024 00:00
Search period end: 25 April 2024 00:00
Orbit: 795 x 811 km, 98.6° (Epoch: 15 April)

Date Brightness Start Highest point End Pass type
(mag) Time Alt. Az. Time Alt. Az. Time Alt. Az.
15 Apr 6.0 02:46:12 10° SSW 02:51:07 40° W 02:56:04 10° NNW visible
16 Apr 4.9 02:20:09 10° S 02:25:25 73° WSW 02:30:42 10° NNW visible
17 Apr 7.4 03:37:39 10° WSW 03:39:53 13° W 03:42:06 10° WNW visible
18 Apr 6.9 03:09:51 10° SSW 03:14:00 23° W 03:18:11 10° NW visible
19 Apr 5.9 02:43:15 10° S 02:48:14 42° W 02:53:13 10° NNW visible
20 Apr 4.8 02:17:15 10° S 02:22:32 78° WSW 02:27:48 10° NNW visible
21 Apr 7.4 03:34:24 10° WSW 03:36:57 14° W 03:39:30 10° WNW visible
22 Apr 6.8 03:06:49 10° SSW 03:11:05 25° W 03:15:23 10° NW visible
23 Apr 5.7 02:40:17 10° S 02:45:18 45° W 02:50:21 10° NNW visible
24 Apr 4.8 02:14:22 10° SSE 02:19:38 83° WSW 02:24:54 10° NNW visible
